Regional Weather Roundup
Issued by NWS Charleston, WV

Home | Current Version | Previous Version | Graphics & Text | Print | Product List | Glossary On
Versions: 1 2 3 4 5 6 7 8 9 10 11 12 13 14 15 16 17 18 19 20 21 22 23 24 25 26 27 28 29 30 31 32 33 34 35 36 37 38 39 40 41 42 43 44 45 46 47 48 49 50
000
ASUS41 KRLX 120710
RWRRLX
West Virginia Regional Weather Roundup
National Weather Service Charleston WV
200 AM EST FRI FEB 12 2016

Note: "fair" indicates few or no clouds below 12,000 feet with no
significant weather and/or obstructions to visibility.

WVZ003-120800-
Northern Panhandle of West Virginia

CITY           SKY/WX    TMP DP  RH WIND       PRES   REMARKS
WHEELING         N/A      9   4  80 S5        30.22F WCI   1
$$

WVZ009-120800-
Northwest West Virginia

CITY           SKY/WX    TMP DP  RH WIND       PRES   REMARKS
PARKERSBURG      N/A      4   0  83 CALM      30.29F FOG
$$

WVZ006-120800-
Western West Virginia

CITY           SKY/WX    TMP DP  RH WIND       PRES   REMARKS
HUNTINGTON       N/A     17   5  59 E3        30.26F
$$

WVZ015-120800-
West Central West Virginia

CITY           SKY/WX    TMP DP  RH WIND       PRES   REMARKS
CHARLESTON       N/A     13   8  81 CALM      30.25F
$$

WVZ022-031-120800-
North Central West Virginia

CITY           SKY/WX    TMP DP  RH WIND       PRES   REMARKS
CLARKSBURG       N/A      4   1  88 CALM      30.23F
MORGANTOWN       N/A      5  -3  69 CALM      30.24F
$$

WVZ025-035-042-045-120800-
Southern West Virginia

CITY           SKY/WX    TMP DP  RH WIND       PRES   REMARKS
BECKLEY          N/A     13   3  64 S3        30.13F
LOGAN            N/A     18   7  62 CALM      30.18F
BLUEFIELD        N/A     16   4  59 CALM      30.11F
LEWISBURG      MOCLDY    14   6  71 CALM      30.15S
$$

WVZ047-120800-
Northern Mountains of West Virginia

CITY           SKY/WX    TMP DP  RH WIND       PRES   REMARKS
ELKINS           N/A     -1  -6  79 CALM      30.18F
$$

WVZ052-120800-
Eastern Panhandle of West Virginia

CITY           SKY/WX    TMP DP  RH WIND       PRES   REMARKS
MARTINSBURG      N/A     14   2  58 W6        30.29F WCI   5
PETERSBURG       N/A     12   6  74 CALM      30.27F
$$



USA.gov is the U.S. government's official web portal to all federal, state and local government web resources and services.